Change the Weather History Date:

Saturday, December 28, 2013

  Actual Average Record
Temperature  
Mean Temperature 36 °F -  
Max Temperature 47 °F 44 °F 70 °F (1976)
Min Temperature 25 °F 19 °F 1 °F (1987)
Degree Days  
Heating Degree Days 29    
Moisture  
Dew Point 26 °F    
Average Humidity 72    
Maximum Humidity 84    
Minimum Humidity 49    
Precipitation  
Precipitation 0.00 in - - ()
Sea Level Pressure  
Sea Level Pressure 29.95 in    
Wind  
Wind Speed 9 mph (SSW)    
Max Wind Speed 25 mph    
Max Gust Speed 30 mph    
Visibility 10 miles    
Events      
Averages and records for this station are not official NWS values.
T = Trace of Precipitation, MM = Missing Value Source: NWS Daily Summary

Daily Weather History Graph

Daily Weather History Graph

Search for Another Location

Airport or City:

Trip Planner

Search our weather history database for the weather conditions in past years. The results will help you decide how hot, cold, wet, or windy it might be!

Date:

Astronomy

Dec. 28, 2013 Rise Set
Actual Time 7:53 AM CST 5:35 PM CST
Civil Twilight 7:25 AM CST 6:04 PM CST
Nautical Twilight 6:52 AM CST 6:36 PM CST
Astronomical Twilight 6:21 AM CST 7:08 PM CST
Moon 3:36 AM CST 2:24 PM CST
Length of Visible Light 10h 39m
Length of Day
9h 41m
Waning Crescent, 19% of the Moon is Illuminated
Dec 28
Waning Crescent
Jan 1
New
Jan 7
First Quarter
Jan 15
Full
Jan 23
Last Quarter

Hourly Weather History & Observations

Time (CST) Temp. Windchill Dew Point Humidity Pressure Visibility Wind Dir Wind Speed Gust Speed Precip Events Conditions
12:15 AM 30.2 °F 23.4 °F 24.6 °F 80% 30.18 in 10.0 mi SSW 6.9 mph - N/A   Clear
12:35 AM 29.3 °F 20.8 °F 24.1 °F 81% 30.18 in 10.0 mi SSW 9.2 mph - N/A   Clear
12:55 AM 31.3 °F 24.7 °F 24.6 °F 76% 30.17 in 10.0 mi SSW 6.9 mph - N/A   Clear
1:15 AM 31.1 °F 22.4 °F 23.9 °F 75% 30.16 in 10.0 mi SSW 10.4 mph - N/A   Clear
1:35 AM 29.1 °F 20.0 °F 23.2 °F 78% 30.15 in 10.0 mi SSW 10.4 mph - N/A   Clear
1:55 AM 28.4 °F 20.4 °F 23.0 °F 80% 30.14 in 10.0 mi SSW 8.1 mph - N/A   Clear
2:15 AM 28.0 °F 19.3 °F 22.5 °F 80% 30.14 in 10.0 mi SSW 9.2 mph - N/A   Clear
2:35 AM 28.4 °F 20.4 °F 22.3 °F 78% 30.12 in 10.0 mi SW 8.1 mph - N/A   Clear
2:55 AM 27.7 °F 18.8 °F 22.5 °F 81% 30.12 in 10.0 mi SSW 9.2 mph - N/A   Clear
3:15 AM 26.4 °F 18.0 °F 21.2 °F 81% 30.11 in 10.0 mi SSW 8.1 mph - N/A   Clear
3:35 AM 26.8 °F 19.3 °F 21.9 °F 82% 30.10 in 10.0 mi SSW 6.9 mph - N/A   Clear
3:55 AM 27.5 °F 20.2 °F 22.1 °F 80% 30.10 in 10.0 mi SSW 6.9 mph - N/A   Clear
4:15 AM 28.2 °F 19.5 °F 22.3 °F 78% 30.09 in 10.0 mi SSW 9.2 mph - N/A   Clear
4:35 AM 28.0 °F 20.0 °F 22.3 °F 79% 30.08 in 10.0 mi SSW 8.1 mph - N/A   Clear
4:55 AM 27.3 °F 18.4 °F 21.2 °F 78% 30.07 in 10.0 mi SSW 9.2 mph - N/A   Clear
5:15 AM 26.2 °F 17.1 °F 21.6 °F 82% 30.06 in 10.0 mi SSW 9.2 mph - N/A   Clear
5:35 AM 27.3 °F 19.9 °F 22.3 °F 81% 30.05 in 10.0 mi SW 6.9 mph - N/A   Clear
5:55 AM 28.0 °F 20.0 °F 21.7 °F 77% 30.04 in 10.0 mi South 8.1 mph - N/A   Clear
6:15 AM 26.1 °F 16.2 °F 21.0 °F 81% 30.04 in 10.0 mi SSW 10.4 mph - N/A   Clear
6:35 AM 25.9 °F 16.0 °F 21.4 °F 83% 30.04 in 10.0 mi SSW 10.4 mph - N/A   Clear
6:55 AM 27.0 °F 18.7 °F 21.9 °F 81% 30.04 in 10.0 mi SSW 8.1 mph - N/A   Clear
7:15 AM 26.6 °F 18.2 °F 21.9 °F 82% 30.04 in 10.0 mi SW 8.1 mph - N/A   Clear
7:35 AM 26.4 °F 19.8 °F 21.2 °F 81% 30.04 in 10.0 mi SSW 5.8 mph - N/A   Clear
7:55 AM 27.0 °F 18.7 °F 22.3 °F 83% 30.03 in 10.0 mi SSW 8.1 mph - N/A   Clear
8:15 AM 26.1 °F 18.4 °F 21.7 °F 84% 30.03 in 10.0 mi SSW 6.9 mph - N/A   Clear
8:35 AM 25.9 °F 21.7 °F 21.2 °F 82% 30.02 in 10.0 mi SSE 3.5 mph - N/A   Clear
8:55 AM 26.8 °F 18.5 °F 21.7 °F 81% 30.02 in 10.0 mi SSW 8.1 mph - N/A   Clear
9:15 AM 30.4 °F 21.5 °F 24.4 °F 79% 30.01 in 10.0 mi SSW 10.4 mph - N/A   Clear
9:35 AM 31.8 °F 23.3 °F 25.7 °F 78% 30.01 in 10.0 mi SSW 10.4 mph - N/A   Clear
9:55 AM 33.8 °F 25.8 °F 27.3 °F 77% 30.00 in 10.0 mi SSW 10.4 mph - N/A   Clear
10:15 AM 35.6 °F 27.1 °F 28.2 °F 75% 30.00 in 10.0 mi SSW 12.7 mph - N/A   Clear
10:35 AM 36.9 °F 29.1 °F 29.1 °F 74% 29.99 in 10.0 mi SSW 11.5 mph - N/A   Clear
10:55 AM 37.9 °F 30.5 °F 29.3 °F 71% 29.98 in 10.0 mi SSW 11.5 mph - N/A   Clear
11:15 AM 39.9 °F 33.4 °F 29.7 °F 67% 29.97 in 10.0 mi SSW 10.4 mph - N/A   Clear
11:35 AM 40.3 °F 33.4 °F 29.8 °F 66% 29.96 in 10.0 mi SSW 11.5 mph - N/A   Clear
11:55 AM 41.0 °F 34.3 °F 30.0 °F 65% 29.94 in 10.0 mi SSW 11.5 mph - N/A   Clear
12:15 PM 41.2 °F 35.0 °F 30.4 °F 65% 29.93 in 10.0 mi SSW 10.4 mph - N/A   Clear
12:35 PM 42.8 °F 35.8 °F 30.4 °F 62% 29.91 in 10.0 mi SSW 13.8 mph - N/A   Clear
12:55 PM 43.0 °F 35.7 °F 30.2 °F 61% 29.89 in 10.0 mi SSW 15.0 mph - N/A   Clear
1:15 PM 43.7 °F 37.3 °F 30.7 °F 60% 29.87 in 10.0 mi SSW 12.7 mph - N/A   Clear
1:35 PM 44.6 °F 37.8 °F 30.2 °F 57% 29.87 in 10.0 mi SSW 15.0 mph - N/A   Clear
1:55 PM 45.1 °F 39.5 °F 31.1 °F 58% 29.85 in 10.0 mi SSW 11.5 mph - N/A   Clear
2:15 PM 46.4 °F 41.5 °F 31.3 °F 56% 29.84 in 10.0 mi SSW 10.4 mph - N/A   Clear
2:35 PM 47.5 °F - 30.6 °F 52% 29.82 in 10.0 mi South 12.7 mph - N/A   Clear
2:55 PM 47.8 °F - 29.7 °F 49% 29.82 in 10.0 mi SSW 11.5 mph - N/A   Clear
3:15 PM 47.7 °F - 30.7 °F 52% 29.81 in 10.0 mi SSW 12.7 mph - N/A   Clear
3:35 PM 46.9 °F - 30.6 °F 53% 29.81 in 10.0 mi SSW 10.4 mph - N/A   Clear
3:55 PM 47.7 °F - 30.2 °F 51% 29.80 in 10.0 mi South 12.7 mph - N/A   Clear
4:15 PM 47.5 °F - 30.0 °F 51% 29.81 in 10.0 mi South 11.5 mph - N/A   Clear
4:35 PM 47.5 °F - 29.3 °F 49% 29.80 in 10.0 mi South 10.4 mph - N/A   Clear
4:55 PM 47.3 °F - 29.1 °F 49% 29.80 in 10.0 mi South 10.4 mph - N/A   Clear
5:15 PM 44.4 °F 38.6 °F 30.2 °F 57% 29.80 in 10.0 mi South 11.5 mph - N/A   Clear
5:35 PM 41.9 °F 35.9 °F 29.7 °F 62% 29.80 in 10.0 mi SSE 10.4 mph - N/A   Clear
5:55 PM 39.9 °F 33.4 °F 29.7 °F 67% 29.80 in 10.0 mi SSE 10.4 mph - N/A   Clear
6:15 PM 38.3 °F 30.9 °F 29.3 °F 70% 29.80 in 10.0 mi SSE 11.5 mph - N/A   Clear
6:35 PM 37.8 °F 30.7 °F 28.6 °F 69% 29.80 in 10.0 mi SSE 10.4 mph - N/A   Clear
6:55 PM 36.7 °F 30.5 °F 28.4 °F 72% 29.81 in 10.0 mi SSE 8.1 mph - N/A   Clear
7:15 PM 36.0 °F 29.0 °F 27.9 °F 72% 29.82 in 10.0 mi South 9.2 mph - N/A   Clear
7:35 PM 34.9 °F 27.1 °F 27.5 °F 74% 29.82 in 10.0 mi SSE 10.4 mph - N/A   Clear
7:55 PM 33.6 °F 26.8 °F 27.5 °F 78% 29.82 in 10.0 mi SSE 8.1 mph - N/A   Clear
8:15 PM 32.9 °F 25.3 °F 27.5 °F 81% 29.82 in 10.0 mi SSE 9.2 mph - N/A   Clear
8:35 PM 33.4 °F 26.6 °F 27.3 °F 78% 29.83 in 10.0 mi South 8.1 mph - N/A   Clear
8:55 PM 33.4 °F 27.3 °F 27.1 °F 78% 29.84 in 10.0 mi SSE 6.9 mph - N/A   Clear
9:15 PM 34.2 °F 29.0 °F 27.0 °F 75% 29.85 in 10.0 mi SSE 5.8 mph - N/A   Clear
9:35 PM 34.0 °F 28.8 °F 27.1 °F 76% 29.85 in 10.0 mi SSE 5.8 mph - N/A   Clear
9:55 PM 33.8 °F 28.6 °F 26.6 °F 75% 29.85 in 10.0 mi SSE 5.8 mph - N/A   Clear
10:15 PM 31.8 °F 27.3 °F 26.4 °F 80% 29.86 in 10.0 mi SSE 4.6 mph - N/A   Clear
10:35 PM 32.0 °F - 26.8 °F 81% 29.87 in 10.0 mi Calm Calm - N/A   Clear
10:55 PM 35.6 °F 27.1 °F 27.5 °F 72% 29.91 in 10.0 mi NNW 12.7 mph - N/A   Clear
11:15 PM 33.3 °F 27.9 °F 27.3 °F 79% 29.91 in 10.0 mi NNW 5.8 mph - N/A   Clear
11:35 PM 35.6 °F 24.8 °F 28.6 °F 76% 29.92 in 10.0 mi North 19.6 mph 25.3 mph N/A   Clear
11:55 PM 36.5 °F 24.7 °F 29.1 °F 75% 29.94 in 10.0 mi NNE 25.3 mph 29.9 mph N/A   Clear